GW0625 Weather Reports


time (UTC)temp
F
wind
direction
speed
knots
gust
knots
rain 1hr
in
rain 24hr
in
rain mn
in
humidity
%
barometer
mb
20260906230048 64 340 5.2 10.4 0.00 0.07 0.00 77 1015.8
20260906224544 62 246 7.0 11.3 0.00 0.07 0.00 80 1015.9
20260906223057 63 294 5.2 11.3 0.00 0.07 0.00 80 1015.9
20260906221553 62 311 4.3 8.7 0.00 0.07 0.00 81 1016.0
20260906220049 61 328 5.2 8.7 0.00 0.07 0.00 83 1015.9
20260906214544 60 324 3.5 7.8 0.00 0.07 0.00 84 1016.0
20260906213052 60 240 3.5 9.6 0.00 0.07 0.00 84 1016.1
20260906211552 60 239 4.3 8.7 0.00 0.07 0.00 83 1016.1
20260906210047 61 287 4.3 9.6 0.00 0.07 0.00 82 1016.1
20260906204543 61 320 5.2 10.4 0.00 0.07 0.00 81 1016.1
20260906203040 62 350 5.2 13.0 0.00 0.07 0.00 80 1016.1
20260906201550 62 241 6.1 12.2 0.00 0.07 0.00 78 1016.1
20260906200051 62 313 5.2 10.4 0.00 0.07 0.00 79 1016.3
20260906194542 62 319 4.3 11.3 0.00 0.07 0.00 78 1016.3
20260906193050 62 360 5.2 11.3 0.00 0.07 0.00 77 1016.1
20260906191556 62 355 7.0 14.8 0.00 0.07 0.00 78 1016.1
20260906190042 60 31 9.6 15.6 0.00 0.07 0.00 79 1016.3
20260906184559 60 346 7.8 13.9 0.00 0.07 0.00 79 1016.6
20260906183048 59 340 7.0 14.8 0.00 0.07 0.00 81 1016.8
20260906181550 58 16 10.4 14.8 0.00 0.07 0.00 86 1016.7
20260906180103 56 338 6.1 13.9 0.00 0.07 0.00 89 1017.6
20260906174552 56 360 7.8 13.0 0.00 0.07 0.00 89 1018.0
20260906173049 55 324 7.0 13.0 0.00 0.07 0.00 90 1018.2
20260906171543 55 295 6.1 14.8 0.00 0.07 0.00 91 1018.3
20260906170040 55 225 7.0 10.4 0.00 0.07 0.00 91 1018.3
20260906164554 55 332 6.1 11.3 0.00 0.07 0.00 91 1018.3
20260906163107 55 352 5.2 13.0 0.00 0.07 0.00 90 1018.1
20260906161543 55 335 7.0 13.0 0.00 0.07 0.00 89 1018.3
20260906160051 55 308 7.0 14.8 0.00 0.07 0.00 88 1018.5
20260906154547 56 308 8.7 13.9 0.00 0.07 0.00 87 1018.8
20260906153050 56 287 7.0 14.8 0.00 0.07 0.00 90 1018.5
20260906151542 57 331 5.2 11.3 0.00 0.07 0.00 90 1018.6
20260906150053 58 24 3.5 10.4 0.00 0.07 0.00 91 1018.7
20260906144547 56 40 4.3 7.8 0.00 0.08 0.00 92 1018.3
20260906143050 56 9 7.0 9.6 0.00 0.08 0.00 93 1018.6
20260906141551 56 336 3.5 9.6 0.00 0.08 0.00 94 1018.8
20260906140054 55 297 4.3 7.8 0.00 0.08 0.00 94 1018.8
20260906134542 55 338 4.3 10.4 0.00 0.08 0.00 94 1018.5
20260906133041 55 319 2.6 7.8 0.00 0.08 0.00 94 1018.5
20260906131610 54 355 2.6 7.0 0.00 0.08 0.00 94 1018.6
20260906130048 54 334 1.7 7.8 0.00 0.08 0.00 94 1018.8
20260906124548 54 13 2.6 8.7 0.00 0.08 0.00 94 1018.7
20260906123042 54 350 2.6 7.0 0.00 0.08 0.00 94 1018.8
20260906121550 54 325 3.5 8.7 0.00 0.08 0.00 94 1018.9
20260906120055 54 282 3.5 7.8 0.00 0.08 0.00 94 1019.1
20260906114541 54 326 3.5 7.8 0.00 0.08 0.00 94 1019.1
20260906113052 54 329 1.7 7.8 0.00 0.08 0.00 94 1019.1
20260906111546 54 347 3.5 9.6 0.00 0.08 0.00 94 1018.9
20260906110040 54 298 3.5 9.6 0.00 0.08 0.00 94 1018.9
20260906104542 54 355 2.6 10.4 0.00 0.08 0.00 94 1018.9
20260906103040 54 328 4.3 9.6 0.00 0.08 0.00 94 1019.3
20260906101553 54 5 3.5 10.4 0.00 0.08 0.00 93 1019.3
20260906100041 54 266 5.2 10.4 0.00 0.08 0.00 94 1019.1
20260906094541 54 5 4.3 13.9 0.00 0.08 0.00 94 1019.4
20260906093052 54 342 7.0 13.9 0.00 0.08 0.00 94 1019.5
20260906091548 54 345 7.0 12.2 0.00 0.08 0.00 94 1019.7
20260906090044 54 309 6.1 11.3 0.00 0.08 0.00 93 1019.9
20260906084550 54 322 7.0 13.0 0.00 0.08 0.00 93 1020.0
20260906083048 54 311 7.0 13.9 0.00 0.08 0.00 93 1019.9
20260906081548 54 345 6.1 13.0 0.00 0.08 0.00 93 1020.0
20260906080052 54 336 6.1 12.2 0.00 0.08 0.00 92 1020.0
20260906074558 54 335 6.1 12.2 0.00 0.08 0.00 92 1020.2
20260906073051 54 302 6.1 13.9 0.00 0.08 0.00 91 1020.3
20260906071549 55 336 7.0 13.9 0.00 0.08 0.00 91 1020.5
20260906070041 55 360 7.8 14.8 0.00 0.08 0.00 90 1020.8
20260906064540 55 321 7.0 13.0 0.00 0.08 0.00 91 1020.9
20260906063041 55 282 7.0 12.2 0.00 0.08 0.00 91 1021.1
20260906061542 55 329 5.2 12.2 0.02 0.08 0.00 90 1020.8
20260906060058 55 321 7.0 12.2 0.02 0.08 0.00 90 1020.8
20260906054549 55 348 7.8 13.9 0.02 0.08 0.08 89 1020.6
20260906053042 55 308 6.1 11.3 0.02 0.08 0.08 89 1020.6
20260906051556 55 302 7.8 11.3 0.00 0.06 0.06 88 1021.1
20260906050048 55 307 7.0 12.2 0.01 0.06 0.06 89 1020.7
20260906044546 55 270 7.0 12.2 0.05 0.06 0.06 88 1020.2
20260906043043 55 5 6.1 12.2 0.05 0.06 0.06 88 1020.0
20260906041550 56 336 5.2 11.3 0.05 0.06 0.06 86 1020.1
20260906040050 56 360 8.7 14.8 0.04 0.05 0.05 83 1020.4
20260906034542 58 236 9.6 13.9 0.00 0.01 0.01 75 1021.9
20260906033057 58 254 7.8 14.8 0.00 0.01 0.01 76 1019.8
20260906031544 57 360 7.0 12.2 0.00 0.01 0.01 75 1019.8
20260906030041 57 336 6.1 13.0 0.00 0.01 0.01 75 1019.5
20260906024550 58 308 7.0 13.0 0.00 0.01 0.01 73 1019.3
20260906023047 58 335 5.2 14.8 0.00 0.01 0.01 72 1019.1
20260906021545 59 348 6.1 13.0 0.00 0.01 0.01 70 1019.1
20260906020054 60 23 5.2 11.3 0.00 0.01 0.01 69 1019.2
20260906014552 60 11 6.1 11.3 0.00 0.01 0.01 68 1019.1
20260906013043 61 309 5.2 13.9 0.00 0.01 0.01 67 1019.0
20260906011540 62 338 6.1 14.8 0.00 0.01 0.01 66 1018.8
20260906010055 63 26 7.0 15.6 0.00 0.01 0.01 64 1018.9
20260906004546 64 341 7.8 14.8 0.00 0.01 0.01 63 1018.9
20260906003043 65 292 6.1 13.9 0.00 0.01 0.01 60 1018.7
20260906001553 67 309 7.8 14.8 0.00 0.01 0.01 57 1019.1
20260906000051 67 308 7.0 13.9 0.00 0.01 0.01 57 1019.1
20260905234548 68 286 5.2 13.0 0.00 0.01 0.01 56 1019.2
20260905233108 69 324 5.2 13.0 0.00 0.01 0.01 53 1019.1
20260905231555 69 42 6.1 11.3 0.00 0.01 0.01 52 1018.8